Location: Star Dogged Moon Observatory
(29.7756°N, 82.0783°W)
Time: 20:09:32
(UTC-04:00)

Amateur Radio Satellites - All Passes

Search period start: 26 June 2017 19:39
Search period end: 27 June 2017 19:39
Location: Star Dogged Moon Observatory, 29.7756°N, 82.0783°W

Satellite Date Start Highest point End Downlink Frequencies (MHz)
Time Altitude Azimuth
NUDT-PHONESAT 26 Jun 19:42:11 19:45:30 29° 262° (W) 19:48:50 437.300
HO-68 26 Jun 19:52:00 19:59:04 64° 72° (ENE) 20:06:11 435.675
CUTE 1.7 + AOD 2 26 Jun 19:55:39 19:59:47 53° 76° (ENE) 20:03:55 437.475
CUTE-I 26 Jun 19:57:45 20:02:17 29° 262° (W) 20:06:52 437.470
AO-85 26 Jun 20:00:48 20:04:22 27° 112° (ESE) 20:07:47 145.980
XW-2F 26 Jun 20:03:11 20:04:59 13° 265° (W) 20:06:46 145.980 - 146.000
XW-2D 26 Jun 20:09:44 20:09:54 10° 266° (W) 20:10:04 145.860 - 145.880
XW-2A 26 Jun 20:12:55 20:16:18 63° 77° (ENE) 20:19:43 145.665 - 145.685
CUBEBUG 2 26 Jun 20:19:00 20:23:23 49° 75° (ENE) 20:27:53 437.445
AAUSAT CUBESAT 2 26 Jun 20:23:50 20:27:25 29° 73° (ENE) 20:30:57 437.432
RS-15 26 Jun 20:25:26 20:36:29 45° 107° (ESE) 20:47:49 29.354- 29.394
STRAND 1 26 Jun 20:27:25 20:32:21 45° 100° (E) 20:37:13 437.568
Oscar 11 26 Jun 20:34:39 20:36:54 14° 69° (ENE) 20:39:08 .
NO-84 26 Jun 20:35:21 20:38:05 20° 120° (ESE) 20:40:58 435.350 FM
ZACube-1 26 Jun 20:42:51 20:46:42 28° 72° (ENE) 20:50:35 437.345
UWE-3 26 Jun 20:49:58 20:54:28 66° 77° (ENE) 20:59:05 435.000/436.395/437.385
BEESAT 3 26 Jun 20:54:17 20:58:11 68° 115° (ESE) 21:02:10 437.485
O/OREOS (USA 219) 26 Jun 20:59:10 21:02:19 19° 101° (E) 21:05:28 437.305
SEEDS 26 Jun 21:12:06 21:15:37 26° 263° (W) 21:19:08 437.485
SRMSAT 26 Jun 21:13:33 21:17:05 16° 197° (SSW) 21:20:36 437.500
PCSat 26 Jun 21:27:04 21:31:24 24° 58° (ENE) 21:35:44 145.827
DELFI C3 26 Jun 21:39:49 21:42:30 18° 71° (ENE) 21:45:10 145.870
AO-85 26 Jun 21:41:50 21:44:40 18° 304° (NW) 21:47:26 145.980
AO-73 26 Jun 21:42:25 21:46:52 61° 260° (W) 21:51:24 145.935
HO-68 26 Jun 21:42:31 21:47:07 18° 265° (W) 21:51:44 435.675
BEESAT 2 26 Jun 21:56:10 22:00:05 67° 298° (WNW) 22:04:04 435.950
CUBEBUG 2 26 Jun 21:58:47 22:00:12 11° 268° (W) 22:01:37 437.445
AAUSAT CUBESAT 2 26 Jun 22:00:23 22:02:49 15° 265° (W) 22:05:16 437.432
STRAND 1 26 Jun 22:07:58 22:11:05 16° 293° (WNW) 22:14:11 437.568
Oscar 11 26 Jun 22:08:38 22:12:38 37° 261° (W) 22:16:40 .
NO-84 26 Jun 22:12:06 22:15:24 29° 316° (NW) 22:18:58 435.350 FM
EO-88 26 Jun 22:18:26 22:21:48 35° 75° (ENE) 22:25:11 145.990 - 145.960
ZACube-1 26 Jun 22:19:34 22:22:53 20° 265° (W) 22:26:14 437.345
FO-29 26 Jun 22:23:01 22:30:03 35° 96° (E) 22:36:47 435.910
YUBILEINY 26 Jun 22:28:22 22:37:02 67° 92° (E) 22:45:46 435.215
RS-15 26 Jun 22:37:20 22:48:47 47° 305° (NW) 23:00:36 29.354- 29.394
O/OREOS (USA 219) 26 Jun 22:37:30 22:41:27 29° 293° (WNW) 22:45:23 437.305
TIGRISAT 26 Jun 22:42:36 22:46:17 24° 96° (E) 22:49:53 435.000
SO-50 26 Jun 23:03:08 23:05:31 14° 52° (NE) 23:07:55 436.795
ESTCUBE 1 26 Jun 23:06:40 23:07:59 11° 67° (ENE) 23:09:18 437.505/2401.250
PCSat 26 Jun 23:09:55 23:14:47 35° 252° (WSW) 23:19:38 145.827
DELFI C3 26 Jun 23:13:58 23:17:03 22° 263° (W) 23:20:08 145.870
M-CUBED/EXP-1 PRIME 26 Jun 23:18:56 23:22:47 65° 287° (WNW) 23:26:55 437.505
UNISAT 6 26 Jun 23:24:21 23:28:59 86° 105° (ESE) 23:33:29 437.425
PRISM 26 Jun 23:45:29 23:49:26 47° 285° (WNW) 23:53:24 437.425
FO-29 27 Jun 00:07:42 00:14:54 41° 290° (WNW) 00:21:54 435.910
QB50P2 27 Jun 00:08:52 00:10:40 12° 94° (E) 00:12:27 145.880/145.840
LO-87 27 Jun 00:09:47 00:13:14 54° 260° (W) 00:16:44 145.935 - 145.965
TIGRISAT 27 Jun 00:19:09 00:22:48 24° 289° (WNW) 00:26:24 435.000
YUBILEINY 27 Jun 00:28:18 00:34:22 20° 288° (WNW) 00:40:30 435.215
EO-79 27 Jun 00:31:27 00:34:48 22° 97° (E) 00:38:07 145.935-145.965
VELOX 1 27 Jun 00:35:53 00:39:32 27° 72° (ENE) 00:43:12 145.980
ESTCUBE 1 27 Jun 00:39:55 00:44:17 50° 260° (W) 00:48:39 437.505/2401.250
SO-50 27 Jun 00:41:48 00:46:11 49° 246° (WSW) 00:50:35 436.795
DUCHIFAT 1 27 Jun 00:43:34 00:47:03 25° 97° (E) 00:50:30 145.980
SPROUT 27 Jun 00:45:35 00:49:31 38° 74° (ENE) 00:53:28 437.525
NANOSAT C BR1 27 Jun 00:52:31 00:56:28 37° 99° (E) 01:00:22 145.865
DX 1 27 Jun 00:52:56 00:54:36 12° 68° (ENE) 00:56:14 434.975-435.025
RS-15 27 Jun 01:00:58 01:05:33 12° 333° (NNW) 01:10:09 29.354- 29.394
UKube-1 27 Jun 01:07:20 01:08:42 11° 68° (ENE) 01:10:04 .
AIST 2D 27 Jun 01:09:26 01:12:37 33° 285° (WNW) 01:15:46 435.315
50 SAT 27 Jun 01:18:17 01:21:20 32° 75° (ENE) 01:24:23 437.505
POLYITAN 1 27 Jun 01:31:26 01:35:38 59° 284° (WNW) 01:39:48 437.675
QB50P2 27 Jun 01:42:34 01:46:32 38° 286° (WNW) 01:50:27 145.880/145.840
BUGSAT 1 27 Jun 01:47:16 01:51:16 40° 99° (E) 01:55:13 437.445
EO-79 27 Jun 02:07:08 02:10:23 22° 289° (WNW) 02:13:38 145.935-145.965
VELOX 1 27 Jun 02:12:48 02:15:53 19° 264° (W) 02:19:01 145.980
DUCHIFAT 1 27 Jun 02:19:27 02:22:30 19° 289° (WNW) 02:25:32 145.980
SPROUT 27 Jun 02:23:40 02:25:30 12° 266° (W) 02:27:19 437.525
DX 1 27 Jun 02:26:14 02:30:19 43° 260° (W) 02:34:27 434.975-435.025
NANOSAT C BR1 27 Jun 02:29:44 02:31:47 13° 291° (WNW) 02:33:49 145.865
Gurwin Techsat 1B 27 Jun 02:31:35 02:35:59 26° 97° (E) 02:40:23 435.225
UKube-1 27 Jun 02:40:10 02:44:15 45° 260° (W) 02:48:23 .
ITUPSAT 1 27 Jun 02:57:34 03:00:57 19° 69° (ENE) 03:04:21 437.325
Oscar 19 27 Jun 03:04:41 03:09:48 80° 283° (WNW) 03:14:55 437.125/150
BEESAT 27 Jun 03:05:59 03:09:49 25° 70° (ENE) 03:13:40 436.000
BUGSAT 1 27 Jun 03:24:28 03:26:11 12° 292° (WNW) 03:27:53 437.445
AO-7 27 Jun 03:26:17 03:30:25 14° 94° (E) 03:34:30 .
ITAMSAT 1 27 Jun 03:47:20 03:50:22 15° 95° (E) 03:53:23 435.822/435.867
MOZHAYETS 4 27 Jun 03:59:16 04:03:49 60° 76° (ENE) 04:08:24
Gurwin Techsat 1B 27 Jun 04:11:18 04:15:48 29° 290° (WNW) 04:20:18 435.225
ITUPSAT 1 27 Jun 04:34:11 04:38:28 33° 261° (W) 04:42:48 437.325
BEESAT 27 Jun 04:43:30 04:47:25 25° 263° (W) 04:51:22 436.000
CUBESAT XI-V 27 Jun 04:45:06 04:49:09 31° 73° (ENE) 04:53:12 437.345
NO-84 27 Jun 04:51:10 04:53:56 16° 39° (NE) 04:56:39 435.350 FM
AO-7 27 Jun 05:15:23 05:23:48 86° 288° (WNW) 05:32:10 .
KKS-1 27 Jun 05:21:18 05:25:36 55° 75° (ENE) 05:29:56 437.445
ITAMSAT 1 27 Jun 05:24:59 05:29:58 46° 287° (WNW) 05:34:55 435.822/435.867
RS-15 27 Jun 05:35:25 05:45:41 31° 47° (NE) 05:55:28 29.354- 29.394
STARS 27 Jun 05:46:31 05:50:36 41° 74° (ENE) 05:54:44 437.465
DOVE 4 27 Jun 06:01:46 06:05:14 18° 95° (E) 06:08:46 437.250
AO-85 27 Jun 06:16:21 06:20:33 62° 62° (ENE) 06:25:03 145.980
Tancredo 1 27 Jun 06:20:04 06:21:01 11° 125° (SE) 06:21:58 437.200
BEESAT 2 27 Jun 06:21:22 06:22:50 12° 52° (NE) 06:24:17 435.950
CUBESAT XI-V 27 Jun 06:23:16 06:26:28 19° 264° (W) 06:29:42 437.345
NO-84 27 Jun 06:27:34 06:31:50 58° 234° (SW) 06:35:54 435.350 FM
XW-2C 27 Jun 06:36:34 06:38:17 13° 94° (E) 06:40:01 145.795 - 145.815
CUTE-I 27 Jun 06:41:41 06:45:10 17° 95° (E) 06:48:38 437.470
KAITUO 1B 27 Jun 06:46:29 06:48:09 13° 95° (E) 06:49:48 145.475/437.950
BEESAT 3 27 Jun 06:53:52 06:57:51 87° 244° (WSW) 07:01:46 437.485
ISS 27 Jun 06:58:30 07:00:27 15° 126° (SE) 07:02:24 437.550
AO-7 27 Jun 07:11:11 07:15:20 15° 304° (WNW) 07:19:31 .
O/OREOS (USA 219) 27 Jun 07:15:22 07:17:43 14° 62° (ENE) 07:20:03 437.305
NUDT-PHONESAT 27 Jun 07:18:07 07:21:31 35° 99° (E) 07:24:53 437.300
STARS 27 Jun 07:25:18 07:27:03 12° 266° (W) 07:28:48 437.465
HO-68 27 Jun 07:28:43 07:32:47 16° 94° (E) 07:36:49 435.675
STRAND 1 27 Jun 07:37:26 07:42:02 35° 72° (ENE) 07:46:40 437.568
DOVE 4 27 Jun 07:38:13 07:42:53 39° 286° (WNW) 07:47:44 437.250
XW-2F 27 Jun 07:38:55 07:42:39 80° 282° (WNW) 07:46:21 145.980 - 146.000
XW-2D 27 Jun 07:44:12 07:47:54 60° 284° (WNW) 07:51:34 145.860 - 145.880
RS-15 27 Jun 07:47:12 07:59:02 70° 248° (WSW) 08:10:13 29.354- 29.394
CUTE 1.7 + AOD 2 27 Jun 07:47:52 07:50:10 14° 94° (E) 07:52:27 437.475
XW-2B 27 Jun 07:53:21 07:56:56 46° 284° (WNW) 08:00:31 145.730 - 145.750
Tancredo 1 27 Jun 07:53:32 07:56:18 33° 318° (NW) 07:59:05 437.200
LilacSat-2 27 Jun 07:54:48 07:58:21 40° 285° (WNW) 08:01:53 437.200
BEESAT 2 27 Jun 07:56:55 08:00:48 46° 247° (WSW) 08:04:37 435.950
XW-2C 27 Jun 08:09:16 08:12:29 27° 286° (WNW) 08:15:39 145.795 - 145.815
CUBEBUG 2 27 Jun 08:17:04 08:20:07 17° 94° (E) 08:23:06 437.445
KAITUO 1B 27 Jun 08:19:00 08:22:08 26° 286° (WNW) 08:25:14 145.475/437.950
CUTE-I 27 Jun 08:20:14 08:25:18 44° 287° (WNW) 08:30:21 437.470
ISS 27 Jun 08:33:46 08:36:42 30° 318° (NW) 08:39:39 437.550
UWE-3 27 Jun 08:46:35 08:50:01 21° 95° (E) 08:53:22 435.000/436.395/437.385
YUBILEINY 27 Jun 08:47:24 08:54:13 24° 74° (ENE) 09:00:56 435.215
O/OREOS (USA 219) 27 Jun 08:53:05 08:57:14 39° 256° (WSW) 09:01:23 437.305
SEEDS 27 Jun 09:00:54 09:05:03 79° 102° (ESE) 09:09:11 437.485
XW-2A 27 Jun 09:13:07 09:16:23 45° 284° (WNW) 09:19:36 145.665 - 145.685
HO-68 27 Jun 09:13:46 09:20:54 70° 287° (WNW) 09:27:59 435.675
STRAND 1 27 Jun 09:17:28 09:21:12 20° 264° (W) 09:24:58 437.568
CUTE 1.7 + AOD 2 27 Jun 09:22:17 09:26:00 31° 286° (WNW) 09:29:42 437.475
AO-73 27 Jun 09:36:41 09:40:48 39° 99° (E) 09:44:47 145.935
TIGRISAT 27 Jun 09:37:41 09:38:43 11° 67° (ENE) 09:39:46 435.000
AAUSAT CUBESAT 2 27 Jun 09:46:22 09:50:26 62° 283° (WNW) 09:54:29 437.432
CUBEBUG 2 27 Jun 09:52:35 09:56:44 32° 287° (WNW) 10:00:44 437.445
M-CUBED/EXP-1 PRIME 27 Jun 10:00:00 10:03:14 48° 71° (ENE) 10:06:22 437.505
Oscar 11 27 Jun 10:01:22 10:05:37 62° 100° (E) 10:09:51 .
FO-29 27 Jun 10:12:38 10:18:19 51° 72° (ENE) 10:24:45 435.910
ZACube-1 27 Jun 10:12:42 10:17:03 60° 284° (WNW) 10:21:15 437.345
UNISAT 6 27 Jun 10:16:53 10:21:02 35° 73° (ENE) 10:25:17 437.425
UWE-3 27 Jun 10:22:40 10:26:21 25° 289° (WNW) 10:29:56 435.000/436.395/437.385
PRISM 27 Jun 10:28:27 10:32:20 48° 75° (ENE) 10:36:14 437.425
YUBILEINY 27 Jun 10:42:47 10:51:21 57° 269° (W) 10:59:49 435.215
DELFI C3 27 Jun 10:55:42 10:59:38 67° 101° (E) 11:03:34 145.870
TIGRISAT 27 Jun 11:10:20 11:14:49 56° 260° (W) 11:19:24 435.000
AO-73 27 Jun 11:14:38 11:16:35 13° 292° (WNW) 11:18:31 145.935
EO-88 27 Jun 11:26:10 11:29:47 68° 283° (WNW) 11:33:22 145.990 - 145.960
AIST 2D 27 Jun 11:37:41 11:40:43 27° 74° (ENE) 11:43:47 435.315
NANOSAT C BR1 27 Jun 11:40:18 11:42:17 13° 69° (ENE) 11:44:16 145.865
LO-87 27 Jun 11:43:22 11:45:48 17° 96° (E) 11:48:13 145.935 - 145.965
UNISAT 6 27 Jun 11:54:58 11:57:47 16° 266° (W) 12:00:38 437.425
JUGNU 27 Jun 11:56:37 12:00:44 19° 165° (SSE) 12:04:52 437.505
FO-29 27 Jun 11:59:49 12:03:47 18° 269° (W) 12:08:03 435.910
PCSat 27 Jun 12:01:34 12:06:57 73° 112° (ESE) 12:12:21 145.827
POLYITAN 1 27 Jun 12:17:37 12:21:39 44° 75° (ENE) 12:25:43 437.675
QB50P2 27 Jun 12:28:23 12:32:35 68° 76° (ENE) 12:36:51 145.880/145.840
BUGSAT 1 27 Jun 12:32:45 12:34:38 13° 68° (ENE) 12:36:32 437.445
ESTCUBE 1 27 Jun 12:38:09 12:42:31 52° 100° (E) 12:46:52 437.505/2401.250
SPROUT 27 Jun 12:39:59 12:40:39 10° 93° (E) 12:41:18 437.525
EO-79 27 Jun 12:52:10 12:56:22 64° 259° (W) 13:00:36 145.935-145.965
DUCHIFAT 1 27 Jun 13:03:44 13:07:52 58° 259° (W) 13:12:04 145.980
SO-50 27 Jun 13:11:33 13:14:23 16° 109° (ESE) 13:17:11 436.795
AIST 2D 27 Jun 13:12:49 13:13:55 11° 266° (W) 13:15:00 435.315
NANOSAT C BR1 27 Jun 13:13:40 13:17:35 37° 261° (W) 13:21:33 145.865
LO-87 27 Jun 13:16:24 13:19:05 19° 288° (WNW) 13:21:44 145.935 - 145.965
JUGNU 27 Jun 13:44:08 13:49:15 30° 174° (S) 13:54:23 437.505
SRMSAT 27 Jun 13:46:38 13:49:24 13° 161° (SSE) 13:52:09 437.500
Gurwin Techsat 1B 27 Jun 13:47:04 13:51:13 24° 69° (ENE) 13:55:23 435.225
PCSat 27 Jun 13:48:32 13:50:50 13° 308° (NW) 13:53:09 145.827
POLYITAN 1 27 Jun 13:56:36 13:57:35 11° 267° (W) 13:58:32 437.675
BUGSAT 1 27 Jun 14:05:48 14:09:35 36° 261° (W) 14:13:27 437.445
VELOX 1 27 Jun 14:07:07 14:11:31 64° 284° (WNW) 14:15:54 145.980
SPROUT 27 Jun 14:12:35 14:16:42 45° 285° (WNW) 14:20:47 437.525
Oscar 19 27 Jun 14:15:17 14:20:26 81° 77° (ENE) 14:25:36 437.125/150
ESTCUBE 1 27 Jun 14:17:53 14:18:48 11° 293° (WNW) 14:19:43 437.505/2401.250
50 SAT 27 Jun 14:18:32 14:21:57 88° 101° (ESE) 14:25:22 437.505
DX 1 27 Jun 14:19:59 14:24:13 49° 100° (E) 14:28:28 434.975-435.025
AO-7 27 Jun 14:20:47 14:24:06 13° 55° (NE) 14:27:24 .
Tancredo 1 27 Jun 14:23:45 14:24:37 11° 35° (NE) 14:25:30 437.200
UKube-1 27 Jun 14:32:50 14:36:59 45° 100° (E) 14:41:07 .
SO-50 27 Jun 14:50:16 14:54:30 37° 301° (WNW) 14:58:43 436.795
ITAMSAT 1 27 Jun 15:00:20 15:02:49 14° 66° (ENE) 15:05:19 435.822/435.867
ISS 27 Jun 15:06:45 15:08:49 15° 37° (NE) 15:10:52 437.550
Gurwin Techsat 1B 27 Jun 15:26:14 15:30:56 32° 262° (W) 15:35:38 435.225
JUGNU 27 Jun 15:32:40 15:37:50 31° 185° (S) 15:43:01 437.505
SRMSAT 27 Jun 15:33:12 15:38:02 25° 170° (S) 15:42:51 437.500
Tancredo 1 27 Jun 15:57:27 16:00:23 49° 229° (SW) 16:03:20 437.200
DX 1 27 Jun 15:58:51 15:59:55 11° 293° (WNW) 16:00:58 434.975-435.025
MOZHAYETS 4 27 Jun 16:01:01 16:04:34 22° 96° (E) 16:08:05
AO-7 27 Jun 16:07:13 16:15:30 78° 71° (ENE) 16:23:51 .
UKube-1 27 Jun 16:11:05 16:12:33 12° 293° (WNW) 16:14:01 .
ITAMSAT 1 27 Jun 16:36:39 16:41:43 56° 259° (WSW) 16:46:51 435.822/435.867
ITUPSAT 1 27 Jun 16:40:03 16:44:51 79° 284° (WNW) 16:49:36 437.325
ISS 27 Jun 16:42:19 16:45:23 37° 230° (SW) 16:48:26 437.550
BEESAT 27 Jun 16:48:37 16:53:19 61° 285° (WNW) 16:57:59 436.000
CUBESAT XI-V 27 Jun 16:49:21 16:51:05 12° 94° (E) 16:52:50 437.345
KKS-1 27 Jun 17:19:12 17:22:09 17° 96° (E) 17:25:06 437.445
SRMSAT 27 Jun 17:21:30 17:26:45 32° 179° (S) 17:31:59 437.500
JUGNU 27 Jun 17:22:02 17:26:22 21° 194° (SSW) 17:30:44 437.505
MOZHAYETS 4 27 Jun 17:37:53 17:41:35 25° 289° (WNW) 17:45:17
STARS 27 Jun 17:43:38 17:45:27 12° 94° (E) 17:47:15 437.465
CUTE-I 27 Jun 17:58:10 18:01:24 16° 67° (ENE) 18:04:37 437.470
AO-7 27 Jun 18:03:58 18:08:48 17° 265° (W) 18:13:40 .
XW-2F 27 Jun 18:14:30 18:17:15 19° 72° (ENE) 18:20:00 145.980 - 146.000
XW-2D 27 Jun 18:19:42 18:22:50 24° 73° (ENE) 18:25:59 145.860 - 145.880
CUBESAT XI-V 27 Jun 18:24:13 18:28:36 46° 285° (WNW) 18:32:59 437.345
XW-2B 27 Jun 18:28:28 18:31:52 31° 74° (ENE) 18:35:16 145.730 - 145.750
LilacSat-2 27 Jun 18:30:21 18:33:53 35° 75° (ENE) 18:37:26 437.200
DOVE 4 27 Jun 18:37:46 18:41:53 72° 258° (WSW) 18:46:07 437.250
XW-2C 27 Jun 18:43:42 18:47:26 52° 76° (ENE) 18:51:10 145.795 - 145.815
KAITUO 1B 27 Jun 18:52:09 18:55:49 50° 76° (ENE) 18:59:29 145.475/437.950
KKS-1 27 Jun 18:54:44 18:58:40 31° 288° (WNW) 19:02:36 437.445
SRMSAT 27 Jun 19:10:36 19:15:29 26° 190° (S) 19:20:21 437.500
STARS 27 Jun 19:17:42 19:21:53 42° 286° (WNW) 19:26:03 437.465
NUDT-PHONESAT 27 Jun 19:24:29 19:28:09 53° 260° (W) 19:31:50 437.300
